Flag for U.S.A. Weather past 2 weeks in Lubbock, Texas, U.S.A.

Now
76 °F

Broken clouds.


Feels Like: 78 °F
Forecast: 65 / 92 °F
Wind: 8 mph from Southwest

Location: Lubbock International Airport

Current Time: Aug 29, 2015 at 9:14:39 PM

Latest Report: Aug 29, 2015 at 8:53 PM


Visibility: 10 mi

Pressure: 29.95 "Hg (26.78 "Hg at 976m altitude)

Humidity: 43%

Dew point: 52 °F

Location of LubbockLocation

Historic Weather in Lubbock — Graph

°F

Lubbock temperature yesterday

Maximum temperature yesterday: 95 °F (at 3:53 PM)
Minimum temperature yesterday: 71 °F (at 9:53 PM)
Average temperature yesterday: 81 °F

Past Weeks' High & Low Weather Summary

 TemperatureHumidityPressure
High95 °F (Aug 18, 5:53 PM)97% (Aug 21, 7:53 AM)30.17 "Hg (Aug 21, 7:53 AM)
Low56 °F (Aug 24, 6:53 AM)19% (Aug 27, 4:53 PM)29.59 "Hg (Aug 19, 1:53 AM)
Average78 °F55%29.91 "Hg
* Reported Aug 14 7:53 PM — Aug 29 7:53 PM, Lubbock, Weather by CustomWeather, © 2015

Note: Actual official high and low records may vary slightly from our data, if they occured in-between our weather recording intervals... More about our weather records

Advertising

Lubbock weather history for previous 24 hours

 ConditionsComfort  
Time TempWeatherWind HumidityBarometerVisibility
7:53 PM
Sat, Aug 29
79 °FBroken clouds.9 mph36%29.97 "Hg10 mi
6:53 PM81 °FBroken clouds.13 mph34%29.97 "Hg10 mi
5:53 PM83 °FBroken clouds.14 mph32%29.96 "Hg10 mi
4:53 PM83 °FBroken clouds.16 mph36%29.97 "Hg10 mi
3:53 PM80 °FBroken clouds.12 mph45%29.99 "Hg10 mi
2:53 PM80 °FBroken clouds.13 mph45%30.01 "Hg10 mi
1:53 PM78 °FBroken clouds.No wind60%30.03 "Hg10 mi
12:53 PM77 °FBroken clouds.3 mph66%30.05 "Hg10 mi
11:53 AM76 °FPartly sunny.6 mph69%30.05 "Hg10 mi
10:53 AM75 °FMostly cloudy.6 mph71%30.04 "Hg10 mi
9:53 AM72 °FLight rain. Cloudy.10 mph78%30.03 "Hg10 mi
8:53 AM71 °FBroken clouds.8 mph81%30.00 "Hg10 mi
7:53 AM70 °FPassing clouds.6 mph81%29.99 "Hg10 mi
6:53 AM70 °FPassing clouds.No wind84%29.95 "Hg10 mi
5:53 AM69 °FMostly cloudy.7 mph87%29.93 "Hg10 mi
4:53 AM70 °FOvercast.7 mph79%29.91 "Hg10 mi
3:53 AM72 °FLight rain. Overcast.16 mph73%29.90 "Hg10 mi
1:53 AM74 °FOvercast.5 mph71%29.93 "Hg10 mi
12:53 AM73 °FLight rain. Mostly cloudy.5 mph76%29.92 "Hg10 mi
11:53 PM
Fri, Aug 28
72 °FLight rain. Passing clouds.14 mph73%29.95 "Hg10 mi
10:53 PM71 °FLight rain. Passing clouds.8 mph81%29.96 "Hg9 mi
9:53 PM71 °FThunderstorms. Mostly cloudy.20 mph78%29.95 "Hg6 mi
Weather by CustomWeather, © 2015

See weather overviewHow to use our weather pages